Regional Weather Roundup
Issued by NWS

Home | Current Version | Previous Version | Text Only | Print | Product List | Glossary On
Versions: 1 2 3 4 5 6 7 8 9 10 11 12 13 14 15 16 17 18 19 20 21 22 23 24 25 26 27 28 29 30 31 32 33 34 35 36 37 38 39 40 41 42 43 44 45 46 47 48 49 50
000
ASUS43 KTOP 231259
RWRKS

WEATHER ROUNDUP FOR KANSAS
NATIONAL WEATHER SERVICE GOODLAND KS
700 AM CST SUN NOV 23 2014

NOTE:  "FAIR" INDICATES FEW OR NO CLOUDS BELOW 12,000 FEET WITH NO
SIGNIFICANT WEATHER AND/OR OBSTRUCTIONS TO VISIBILITY.

KSZ001>006-013>018-027>032-041>047-231400-
NORTHWEST KANSAS

CITY           SKY/WX    TMP DP  RH WIND       PRES   REMARKS
GOODLAND       CLOUDY    42  24  49 N23G36    29.62R
HAYS           MOCLDY    41  36  81 SE6       29.47R
HILL CITY      MOCLDY    47  32  56 N24G32    29.52R
RUSSELL        CLOUDY    50  46  86 SE6       29.47R
$$

KSZ061>065-074>080-084>089-231400-
SOUTHWEST KANSAS

CITY           SKY/WX    TMP DP  RH WIND       PRES   REMARKS
DODGE CITY     CLOUDY    44  42  93 N13       29.45R FOG
ELKHART          N/A    N/A N/A N/A MISG        N/A
GARDEN CITY    PTCLDY    42  39  89 N20       29.46R
GREAT BEND     CLOUDY    50  45  81 E5        29.47F
LIBERAL        PTCLDY    43  30  61 NW17      29.48R
$$

KSZ066>073-081>083-090>101-231400-
SOUTHEAST KANSAS

CITY           SKY/WX    TMP DP  RH WIND       PRES   REMARKS
CHANUTE        CLOUDY    57  55  93 S14       29.52F
COFFEYVILLE    CLOUDY    57  55  93 S8        29.51F
HUTCHINSON     CLOUDY    53  50  89 S9        29.49R
MEDICINE LODGE   N/A     51  49  92 SE7       29.41F
NEWTON         CLOUDY    54  48  82 S13       29.50R
PARSONS        CLOUDY    57  56  96 S5        29.53F
WICHITA INTL   CLOUDY    55  51  86 S18       29.47R
WICHITA JABRA  CLOUDY    54  51  90 S14G23    29.46S
WINFIELD       CLOUDY    56  53  90 S12       29.48F
$$

KSZ007>012-019>026-033>040-048>060-102>105-231400-
NORTHEAST KANSAS

CITY           SKY/WX    TMP DP  RH WIND       PRES   REMARKS
CONCORDIA      CLOUDY    51  50  96 S12       29.49R
EMPORIA        CLOUDY    54  53  97 S13G22    29.47F
LAWRENCE       CLOUDY    53  51  93 SE9       29.51F
MANHATTAN      LGT RAIN  55  53  93 S3        29.50R
OLATHE IND     LGT RAIN  53  53 100 S12       29.53S
OLATHE EXE     LGT RAIN  53  53 100 S8        29.52F FOG
SALINA         LGT RAIN  53  49  86 CALM      29.50R FOG
TOPEKA BILLARD CLOUDY    56  54  93 S9        29.50F
TOPEKA FORBES  CLOUDY    56  53  90 S10       29.50F FOG
$$


USA.gov is the U.S. government's official web portal to all federal, state and local government web resources and services.